Oakland, CA

12:07 AM PST on December 16, 2019 (GMT -0800)
Metro Oakland International

Weather History for KOAK - October, 2019

Change the Weather History Date:

Friday, October 25, 2019

  Actual Average Record
Temperature  
Mean Temperature 69 °F 59 °F  
Max Temperature 85 °F 68 °F 92 °F (2003)
Min Temperature 52 °F 50 °F 42 °F (1956)
Degree Days  
Heating Degree Days 0 6  
Month to date heating degree days 90 111  
Since 1 July heating degree days 120 311  
Cooling Degree Days 4 0  
Month to date cooling degree days 31 12  
Year to date cooling degree days 395 137  
Growing Degree Days 20 (Base 50)    
Moisture  
Dew Point 41 °F    
Average Humidity 40    
Maximum Humidity 63    
Minimum Humidity 17    
Precipitation  
Precipitation 0.00 in 0.06 in 1.48 in (1979)
Month to date precipitation T 0.80  
Year to date precipitation 15.94 14.30  
Sea Level Pressure  
Sea Level Pressure 30.06 in    
Wind  
Wind Speed 5 mph (WNW)    
Max Wind Speed 13 mph    
Max Gust Speed 15 mph    
Visibility 10 miles    
Events      
T = Trace of Precipitation, MM = Missing Value Source: NWS Daily Summary

Daily Weather History Graph

Daily Weather History Graph

Search for Another Location

Airport or City:

Astronomy

Oct. 25, 2019 Rise Set
Actual Time 7:26 AM PDT 6:18 PM PDT
Civil Twilight 7:00 AM PDT 6:45 PM PDT
Nautical Twilight 6:29 AM PDT 7:15 PM PDT
Astronomical Twilight 5:58 AM PDT 7:46 PM PDT
Moon 4:21 AM PDT (10/25) 5:19 PM PDT (10/25)
Length of Visible Light 11h 45m
Length of Day
10h 51m
Waning Crescent, 8% of the Moon is Illuminated
Oct 25
Waning Crescent
Oct 27
New
Nov 4
First Quarter
Nov 12
Full
Nov 19
Last Quarter

Hourly Weather History & Observations

Time (PDT) Temp. Dew Point Humidity Pressure Visibility Wind Dir Wind Speed Gust Speed Precip Events Conditions
12:53 AM 72.0 °F 30.9 °F 22% 30.08 in 10.0 mi SE 9.2 mph - N/A   Clear
1:53 AM 66.0 °F 36.0 °F 33% 30.09 in 10.0 mi SE 3.5 mph - N/A   Clear
2:53 AM 64.0 °F 37.9 °F 38% 30.09 in 10.0 mi ESE 4.6 mph - N/A   Clear
3:53 AM 59.0 °F 34.0 °F 39% 30.08 in 10.0 mi ENE 3.5 mph - N/A   Clear
4:53 AM 61.0 °F 36.0 °F 39% 30.09 in 10.0 mi NNW 3.5 mph - N/A   Clear
5:53 AM 57.9 °F 39.0 °F 49% 30.09 in 10.0 mi Calm Calm - N/A   Partly Cloudy
6:53 AM 59.0 °F 42.1 °F 53% 30.10 in 10.0 mi NNW 3.5 mph - N/A   Partly Cloudy
7:53 AM 57.9 °F 42.1 °F 56% 30.10 in 10.0 mi Calm Calm - N/A   Partly Cloudy
8:53 AM 64.4 °F 41.0 °F 42% 30.12 in 10.0 mi Calm Calm - N/A   Partly Cloudy
9:53 AM 73.4 °F 42.8 °F 33% 30.13 in 10.0 mi Calm Calm - N/A   Partly Cloudy
10:53 AM 71.6 °F 46.4 °F 41% 30.12 in 10.0 mi WSW 4.6 mph - N/A   Partly Cloudy
11:53 AM 75.2 °F 42.8 °F 31% 30.11 in 10.0 mi West 8.1 mph - N/A   Partly Cloudy
12:53 PM 78.8 °F 35.6 °F 21% 30.09 in 10.0 mi WNW 6.9 mph - N/A   Partly Cloudy
1:53 PM 80.6 °F 32.0 °F 17% 30.06 in 10.0 mi WNW 8.1 mph - N/A   Partly Cloudy
2:53 PM 82.4 °F 39.2 °F 21% 30.04 in 10.0 mi WNW 11.5 mph - N/A   Partly Cloudy
3:53 PM 81.0 °F 44.1 °F 27% 30.03 in 10.0 mi WNW 10.4 mph - N/A   Partly Cloudy
4:53 PM 84.2 °F 39.2 °F 20% 30.01 in 10.0 mi NW 9.2 mph - N/A   Partly Cloudy
5:53 PM 75.2 °F 46.4 °F 36% 30.00 in 10.0 mi West 5.8 mph - N/A   Partly Cloudy
6:53 PM 75.2 °F 37.4 °F 25% 30.00 in 10.0 mi NW 5.8 mph - N/A   Partly Cloudy
7:53 PM 69.8 °F 46.4 °F 43% 30.00 in 10.0 mi Calm Calm - N/A   Partly Cloudy
8:53 PM 69.8 °F 44.6 °F 40% 30.00 in 10.0 mi Calm Calm - N/A   Partly Cloudy
9:53 PM 64.4 °F 51.8 °F 64% 30.00 in 10.0 mi SE 3.5 mph - N/A   Partly Cloudy
10:53 PM 64.4 °F 46.4 °F 52% 30.00 in 10.0 mi SE 5.8 mph - N/A   Partly Cloudy
11:53 PM 64.4 °F 46.4 °F 52% 29.98 in 10.0 mi SE 9.2 mph - N/A   Scattered Clouds